Location: Prairie View Elementary School
(39.8322°N, 99.5698°W)
Time: 20:58:29
(UTC+00:00)

DMSP B5D1-3 - Pass Details

Date: 08 December 2019
Orbit: 766 x 781 km, 98.5° (Epoch: 26 January)

Event Time Altitude Azimuth Distance (km) Brightness Sun altitude
Exits shadow 01:29:08 57° 15° (NNE) 910 4.6 -25.3°
Maximum altitude 01:30:13 89° 92° (E) 781 4.4 -25.6°
Drops below altitude 10° 01:35:20 10° 195° (SSW) 2,310 7.2 -26.5°
Sets 01:37:38 0° 195° (SSW) 3,231 8.0 -27.0°
